Wadena, MN

11:02 AM CDT on July 24, 2017 (GMT -0500)
Wadena Municipal

Weather History for KADC - October, 2012

Change the Weather History Date:

Tuesday, October 9, 2012

  Actual Average Record
Temperature  
Mean Temperature 32 °F -  
Max Temperature 37 °F 56 °F 84 °F (1938)
Min Temperature 26 °F 34 °F 20 °F (1964)
Degree Days  
Heating Degree Days 34    
Moisture  
Dew Point 28 °F    
Average Humidity 76    
Maximum Humidity 93    
Minimum Humidity 70    
Precipitation  
Precipitation 0.00 in - - ()
Sea Level Pressure  
Sea Level Pressure 29.80 in    
Wind  
Wind Speed 9 mph (West)    
Max Wind Speed 21 mph    
Max Gust Speed 30 mph    
Visibility 10 miles    
Events Rain    
Averages and records for this station are not official NWS values.
T = Trace of Precipitation, MM = Missing Value Source: NWS Daily Summary

Daily Weather History Graph

Daily Weather History Graph

Search for Another Location

Airport or City:

Trip Planner

Search our weather history database for the weather conditions in past years. The results will help you decide how hot, cold, wet, or windy it might be!

Date:

Astronomy

Oct. 09, 2012 Rise Set
Actual Time 7:30 AM CDT 6:44 PM CDT
Civil Twilight 7:00 AM CDT 7:14 PM CDT
Nautical Twilight 6:25 AM CDT 7:49 PM CDT
Astronomical Twilight 5:50 AM CDT 8:24 PM CDT
Moon 12:47 AM CDT (10/9) 3:30 PM CDT (10/9)
Length of Visible Light 12h 13m
Length of Day
11h 13m
Last Quarter, 36% of the Moon is Illuminated
Oct 9
Last Quarter
Oct 15
New
Oct 21
First Quarter
Oct 29
Full
Nov 6
Last Quarter

Hourly Weather History & Observations

Time (CDT) Temp. Windchill Dew Point Humidity Pressure Visibility Wind Dir Wind Speed Gust Speed Precip Events Conditions
12:15 AM 35.6 °F 31.7 °F 33.8 °F 93% 29.68 in 10.0 mi SW 4.6 mph - N/A   Clear
12:35 AM 37.4 °F 32.8 °F 32.0 °F 81% 29.67 in 10.0 mi SW 5.8 mph - N/A   Scattered Clouds
12:52 AM 37.4 °F 32.8 °F 32.0 °F 81% 29.67 in 10.0 mi WSW 5.8 mph - N/A   Clear
1:15 AM 37.4 °F 32.1 °F 30.2 °F 75% 29.67 in 10.0 mi WSW 6.9 mph - N/A   Scattered Clouds
1:53 AM 37.4 °F 32.8 °F 30.2 °F 75% 29.68 in 10.0 mi WSW 5.8 mph - N/A   Overcast
2:15 AM 37.4 °F 32.8 °F 30.2 °F 75% 29.69 in 10.0 mi WSW 5.8 mph - N/A   Overcast
2:53 AM 37.4 °F 34.9 °F 30.2 °F 75% 29.69 in 10.0 mi WSW 3.5 mph - N/A   Scattered Clouds
3:15 AM 37.4 °F 33.8 °F 30.2 °F 75% 29.68 in 10.0 mi West 4.6 mph - N/A   Mostly Cloudy
3:35 AM 35.6 °F 32.8 °F 30.2 °F 81% 29.68 in 10.0 mi WSW 3.5 mph - N/A   Mostly Cloudy
3:53 AM 37.4 °F 32.8 °F 30.2 °F 75% 29.68 in 10.0 mi West 5.8 mph - N/A   Overcast
4:14 AM 37.4 °F 32.8 °F 30.2 °F 75% 29.68 in 10.0 mi West 5.8 mph - N/A   Overcast
4:35 AM 37.4 °F 34.9 °F 30.2 °F 75% 29.68 in 10.0 mi West 3.5 mph - N/A   Mostly Cloudy
4:53 AM 35.6 °F 30.7 °F 28.4 °F 75% 29.68 in 10.0 mi West 5.8 mph - N/A   Scattered Clouds
5:14 AM 35.6 °F 30.7 °F 28.4 °F 75% 29.68 in 10.0 mi West 5.8 mph - N/A   Scattered Clouds
5:35 AM 35.6 °F 29.9 °F 28.4 °F 75% 29.69 in 10.0 mi West 6.9 mph - N/A   Scattered Clouds
6:15 AM 35.6 °F 28.6 °F 26.6 °F 70% 29.70 in 10.0 mi West 9.2 mph 17.3 mph N/A   Clear
6:35 AM 33.8 °F 27.0 °F 26.6 °F 75% 29.70 in 10.0 mi West 8.1 mph - N/A   Clear
6:52 AM 33.8 °F 25.8 °F 26.6 °F 75% 29.70 in 10.0 mi West 10.4 mph - N/A   Clear
7:15 AM 33.8 °F 25.8 °F 26.6 °F 75% 29.70 in 10.0 mi West 10.4 mph - N/A   Clear
7:35 AM 33.8 °F 26.4 °F 26.6 °F 75% 29.70 in 10.0 mi WSW 9.2 mph - N/A   Clear
7:53 AM 33.8 °F 27.0 °F 26.6 °F 75% 29.70 in 10.0 mi WSW 8.1 mph - N/A   Scattered Clouds
8:15 AM 33.8 °F 27.7 °F 26.6 °F 75% 29.70 in 10.0 mi WSW 6.9 mph - N/A   Overcast
8:35 AM 35.6 °F 28.0 °F 26.6 °F 70% 29.70 in 10.0 mi WSW 10.4 mph - N/A   Overcast
8:52 AM 35.6 °F 26.6 °F 26.6 °F 70% 29.70 in 10.0 mi West 13.8 mph 19.6 mph N/A   Overcast
9:15 AM 35.6 °F 28.6 °F 26.6 °F 70% 29.70 in 10.0 mi WSW 9.2 mph 18.4 mph N/A   Overcast
9:35 AM 35.6 °F 27.5 °F 26.6 °F 70% 29.71 in 10.0 mi WSW 11.5 mph 16.1 mph N/A   Overcast
9:52 AM 35.6 °F 27.5 °F 26.6 °F 70% 29.72 in 10.0 mi West 11.5 mph 19.6 mph N/A   Overcast
10:15 AM 35.6 °F 29.9 °F 28.4 °F 75% 29.72 in 7.0 mi West 6.9 mph 18.4 mph N/A Rain Light Rain
10:35 AM 35.6 °F 27.1 °F 28.4 °F 75% 29.73 in 10.0 mi West 12.7 mph 21.9 mph N/A   Overcast
10:52 AM 35.6 °F 28.6 °F 28.4 °F 75% 29.74 in 10.0 mi West 9.2 mph 20.7 mph N/A   Overcast
11:15 AM 35.6 °F 27.1 °F 30.2 °F 81% 29.74 in 10.0 mi WNW 12.7 mph 17.3 mph N/A   Overcast
11:35 AM 37.4 °F 30.8 °F 30.2 °F 75% 29.74 in 10.0 mi West 9.2 mph 18.4 mph N/A   Overcast
11:53 AM 37.4 °F 29.8 °F 30.2 °F 75% 29.75 in 10.0 mi West 11.5 mph 17.3 mph N/A   Overcast
12:15 PM 35.6 °F 26.2 °F 32.0 °F 87% 29.76 in 4.0 mi WNW 15.0 mph 21.9 mph N/A Rain Light Rain
12:35 PM 35.6 °F 25.5 °F 30.2 °F 81% 29.77 in 10.0 mi WNW 17.3 mph 24.2 mph N/A   Overcast
12:53 PM 33.8 °F 24.8 °F 30.2 °F 87% 29.78 in 10.0 mi WNW 12.7 mph 25.3 mph N/A   Overcast
1:15 PM 35.6 °F 26.6 °F 30.2 °F 81% 29.79 in 10.0 mi WNW 13.8 mph 18.4 mph N/A   Overcast
1:35 PM 37.4 °F 28.5 °F 30.2 °F 75% 29.80 in 10.0 mi WNW 15.0 mph 21.9 mph N/A   Overcast
1:53 PM 35.6 °F 24.5 °F 30.2 °F 81% 29.81 in 10.0 mi NW 20.7 mph 29.9 mph N/A   Overcast
2:15 PM 35.6 °F 27.1 °F 30.2 °F 81% 29.82 in 5.0 mi WNW 12.7 mph 25.3 mph N/A Rain Light Rain
2:35 PM 35.6 °F 25.5 °F 30.2 °F 81% 29.82 in 4.0 mi NW 17.3 mph 24.2 mph N/A Rain Light Rain
2:53 PM 35.6 °F 25.2 °F 28.4 °F 75% 29.83 in 10.0 mi NW 18.4 mph 25.3 mph N/A   Overcast
3:14 PM 37.4 °F 27.2 °F 28.4 °F 70% 29.84 in 10.0 mi NW 19.6 mph 27.6 mph N/A   Overcast
3:35 PM 35.6 °F 25.2 °F 26.6 °F 70% 29.84 in 10.0 mi NW 18.4 mph 23.0 mph N/A   Overcast
3:53 PM 35.6 °F 25.9 °F 26.6 °F 70% 29.85 in 10.0 mi NW 16.1 mph 23.0 mph N/A   Overcast
4:15 PM 35.6 °F 24.8 °F 26.6 °F 70% 29.86 in 10.0 mi NW 19.6 mph 24.2 mph N/A   Overcast
4:35 PM 35.6 °F 26.6 °F 26.6 °F 70% 29.87 in 10.0 mi NW 13.8 mph 26.5 mph N/A   Overcast
4:53 PM 35.6 °F 24.8 °F 26.6 °F 70% 29.87 in 10.0 mi NW 19.6 mph 26.5 mph N/A   Overcast
5:15 PM 35.6 °F 27.1 °F 26.6 °F 70% 29.88 in 10.0 mi WNW 12.7 mph 19.6 mph N/A   Overcast
5:35 PM 35.6 °F 24.5 °F 26.6 °F 70% 29.89 in 10.0 mi NW 20.7 mph 26.5 mph N/A   Overcast
5:53 PM 33.8 °F 23.2 °F 24.8 °F 70% 29.90 in 10.0 mi NW 17.3 mph 25.3 mph N/A   Overcast
6:15 PM 33.8 °F 23.9 °F 24.8 °F 70% 29.90 in 10.0 mi WNW 15.0 mph 21.9 mph N/A   Overcast
6:35 PM 33.8 °F 24.3 °F 26.6 °F 75% 29.91 in 10.0 mi WNW 13.8 mph 19.6 mph N/A   Overcast
6:52 PM 33.8 °F 25.3 °F 26.6 °F 75% 29.92 in 10.0 mi NW 11.5 mph - N/A   Overcast
7:15 PM 33.8 °F 27.0 °F 26.6 °F 75% 29.92 in 10.0 mi NW 8.1 mph - N/A   Overcast
7:35 PM 33.8 °F 25.8 °F 24.8 °F 70% 29.93 in 10.0 mi NW 10.4 mph 18.4 mph N/A   Scattered Clouds
7:53 PM 33.8 °F 26.4 °F 24.8 °F 70% 29.94 in 10.0 mi WNW 9.2 mph - N/A   Scattered Clouds
8:15 PM 33.8 °F 29.6 °F 24.8 °F 70% 29.94 in 10.0 mi WNW 4.6 mph - N/A   Mostly Cloudy
8:35 PM 33.8 °F 25.8 °F 24.8 °F 70% 29.94 in 10.0 mi NW 10.4 mph 18.4 mph N/A   Overcast
8:53 PM 33.8 °F 25.8 °F 24.8 °F 70% 29.95 in 10.0 mi WNW 10.4 mph - N/A   Overcast
9:15 PM 32.0 °F 24.8 °F 24.8 °F 75% 29.95 in 10.0 mi WNW 8.1 mph - N/A   Overcast
9:35 PM 30.2 °F 22.6 °F 24.8 °F 80% 29.96 in 10.0 mi WNW 8.1 mph - N/A   Scattered Clouds
9:52 PM 30.2 °F 24.3 °F 24.8 °F 80% 29.96 in 10.0 mi WNW 5.8 mph - N/A   Clear
10:15 PM 30.2 °F 23.4 °F 24.8 °F 80% 29.97 in 10.0 mi WNW 6.9 mph - N/A   Scattered Clouds
10:35 PM 30.2 °F 24.3 °F 24.8 °F 80% 29.97 in 10.0 mi WNW 5.8 mph - N/A   Overcast
10:53 PM 28.4 °F 23.3 °F 24.8 °F 86% 29.97 in 10.0 mi WNW 4.6 mph - N/A   Mostly Cloudy
11:14 PM 28.4 °F 24.6 °F 23.0 °F 80% 29.97 in 10.0 mi West 3.5 mph - N/A   Scattered Clouds
11:35 PM 26.6 °F 20.0 °F 21.2 °F 80% 29.97 in 10.0 mi West 5.8 mph - N/A   Scattered Clouds
11:53 PM 26.6 °F 21.2 °F 21.2 °F 80% 29.97 in 10.0 mi West 4.6 mph - N/A   Scattered Clouds